Wind_Speed
28 27 26 26 26 26 28 27 28 28 28 26 21 16 15 15 16 15 15 14 14 14 14 16 18 23 13 6 8 4 14 12 14 11 10 7 2 4 6 4 5 2 5 4 7 17 16
27 25 25 26 24 25 26 25 26 26 25 20 16 14 13 14 14 14 14 14 14 14 16 17 22 21 12 6 5 10 15 10 6 3 4 3 2 8 3 11 11 6 2 5 11 18 12
25 24 24 24 22 22 23 23 24 23 19 16 13 11 12 14 12 13 14 15 16 17 17 19 22 19 5 6 6 10 16 10 11 8 5 8 8 9 7 13 8 9 8 4 6 5 7
23 23 23 22 20 20 21 20 20 17 14 11 9 10 11 13 14 15 17 18 18 17 17 19 20 14 3 2 9 17 14 12 14 9 11 12 12 11 3 6 9 10 10 12 8 5 5
22 22 22 20 18 17 18 16 15 13 10 9 11 12 14 16 18 20 21 19 18 17 17 19 17 6 5 6 8 16 14 9 10 12 5 13 11 8 6 8 10 11 12 13 14 7 5
23 22 19 17 15 15 14 11 12 8 9 11 13 15 18 21 23 23 21 19 18 18 19 19 16 3 5 4 9 13 16 9 11 12 12 14 11 5 5 5 8 6 7 17 15 13 10
22 20 18 14 14 13 9 10 9 8 11 14 16 19 23 25 25 24 21 19 18 19 20 11 4 9 2 7 7 11 13 15 15 12 9 3 3 6 10 6 5 4 8 12 16 11 0
22 18 17 14 13 11 8 10 9 11 14 17 20 24 27 28 26 25 26 18 16 16 8 10 10 8 10 10 7 9 13 13 12 7 0 4 5 5 1 3 4 5 4 8 7 4 8
24 18 16 14 13 10 12 12 11 13 17 21 25 27 28 26 25 25 11 19 18 10 8 10 6 5 17 13 6 13 17 11 6 3 4 6 5 2 7 4 6 5 4 3 4 3 7
23 19 17 15 14 13 15 14 14 16 20 23 26 28 27 25 26 15 15 20 21 15 8 8 10 7 11 11 12 11 12 12 6 1 9 4 4 4 5 2 1 3 4 7 8 7 6
22 21 18 17 16 16 17 17 17 18 20 23 26 28 26 24 25 18 20 21 20 7 3 10 7 7 6 5 3 4 13 11 2 1 6 5 5 5 4 4 5 3 7 8 7 8 9
23 23 19 18 19 18 19 19 19 20 20 21 24 26 24 22 23 18 19 21 14 4 4 9 7 11 7 5 5 2 13 9 5 6 4 6 4 2 4 1 9 6 7 9 10 8 5
25 24 20 20 20 20 21 21 21 21 22 22 25 26 25 21 21 19 23 17 3 1 10 9 13 10 7 8 7 9 10 10 6 6 5 10 3 7 4 3 5 6 7 4 2 1 3
28 24 21 21 20 22 21 22 22 22 22 21 22 23 23 20 18 19 22 12 1 4 7 9 15 11 9 10 12 9 7 9 10 8 11 12 4 1 5 4 1 7 8 4 0 1 5
29 24 22 21 20 21 23 24 23 23 22 22 22 23 24 21 18 18 21 9 2 4 11 12 12 13 12 6 8 6 10 4 4 7 5 8 5 3 3 6 5 5 6 5 1 4 2
28 25 23 21 20 20 23 24 24 24 23 22 22 21 20 19 19 20 23 9 1 6 6 13 14 13 10 9 9 5 4 3 3 8 8 8 7 2 8 7 9 11 6 4 3 1 3
29 26 23 20 19 20 22 24 25 25 24 23 22 20 20 19 20 22 21 9 4 11 15 14 13 10 7 12 8 9 5 5 8 6 5 13 6 6 4 3 2 4 4 1 2 1 4
29 26 23 20 19 20 22 24 25 26 26 24 21 17 18 20 22 23 18 4 8 8 14 13 7 10 7 12 5 8 9 6 8 10 6 8 9 8 5 4 4 3 2 1 2 2 2
29 26 24 20 19 21 22 22 24 25 26 24 20 15 13 21 20 22 11 8 7 7 14 12 14 11 7 12 6 8 12 8 11 8 9 11 7 7 3 1 2 4 1 6 8 10 9
30 28 24 21 19 21 22 21 23 25 26 24 19 14 12 19 16 21 10 11 13 12 12 10 9 13 12 10 8 10 10 11 8 7 8 8 9 5 6 2 5 7 8 8 11 8 13
31 29 25 21 20 20 22 20 23 27 29 26 13 12 13 25 17 17 13 7 14 16 15 14 9 9 13 8 6 9 8 9 7 8 8 7 9 8 8 7 9 9 11 12 14 15 15
32 29 26 23 21 20 22 21 24 28 31 21 13 14 12 13 19 17 16 13 12 7 10 10 6 9 11 12 12 10 8 3 5 7 9 8 6 6 5 6 8 14 13 3 2 4 9
31 29 26 24 21 20 21 23 24 30 28 18 11 12 17 12 25 16 13 14 14 14 8 11 11 15 15 14 16 15 14 11 9 7 9 6 4 4 3 7 12 3 4 5 8 9 9
32 29 26 24 22 20 21 22 24 25 25 22 17 14 18 17 20 17 15 16 11 15 12 13 12 19 18 14 13 13 13 11 11 10 10 8 7 5 5 7 1 6 9 13 14 9 12
32 29 27 24 22 20 19 23 22 21 21 20 14 15 12 12 16 17 13 13 14 16 15 18 20 18 18 17 14 12 12 11 12 13 12 12 9 4 4 4 13 8 6 11 8 11 16
32 29 26 24 22 20 19 16 18 20 17 14 13 12 11 11 16 17 16 16 19 19 18 20 18 16 16 16 14 8 6 5 6 5 11 8 7 8 7 4 6 9 5 10 14 15 18
32 29 26 24 22 20 18 17 15 15 14 13 12 12 12 11 17 19 16 19 20 21 18 18 16 15 14 14 13 11 10 10 7 7 8 11 10 14 13 8 9 11 17 17 11 14 14
31 29 26 24 21 19 18 16 15 14 14 13 12 11 11 12 11 17 19 19 17 14 16 15 15 17 16 15 13 13 11 13 13 13 10 9 6 8 10 8 9 8 12 17 19 21 22
31 29 27 24 21 19 17 16 16 15 15 14 12 11 11 11 8 14 19 17 19 17 14 14 16 14 13 11 14 11 12 11 16 11 14 12 14 10 12 10 21 23 21 25 26 24 28
Wind_Direction
247 251 255 262 269 275 280 286 288 289 289 285 279 267 251 238 227 221 211 205 199 189 179 171 158 154 146 127 85 170 157 138 115 104 115 133 179 232 246 208 210 204 147 211 171 150 142
246 250 255 261 268 275 280 285 288 290 286 279 268 252 236 224 214 206 196 188 182 172 168 164 157 157 148 90 117 186 149 134 135 238 239 286 191 166 160 173 192 165 192 150 143 181 179
245 249 252 258 265 272 281 287 289 286 279 267 257 236 216 206 198 186 175 170 163 162 163 161 164 166 162 129 170 180 170 171 168 169 177 202 170 109 93 135 120 126 156 139 161 122 110
241 245 251 258 265 275 281 286 285 278 265 252 229 207 194 181 173 162 156 154 154 156 159 158 161 158 112 50 190 159 176 193 182 162 187 188 161 131 44 168 151 189 203 181 179 196 202
236 241 249 254 262 272 277 281 276 262 251 219 197 182 170 161 154 150 148 146 146 148 150 152 157 158 56 58 167 187 159 146 209 194 171 152 156 158 181 169 178 209 235 193 169 195 190
235 237 243 249 258 266 269 270 256 240 215 193 176 164 156 149 146 143 140 141 144 144 145 146 154 156 170 144 188 184 167 166 148 137 132 146 154 179 173 207 231 298 334 187 172 179 198
229 234 238 241 249 252 251 243 234 199 188 171 162 152 149 146 143 140 140 139 143 145 133 122 153 90 63 221 169 171 169 155 138 146 144 82 255 183 127 152 111 38 32 111 140 153 333
223 224 230 232 236 230 216 217 198 179 172 159 153 148 148 147 146 140 128 131 144 145 147 111 153 211 169 119 148 165 155 138 147 144 166 221 203 197 54 94 149 84 14 84 92 23 306
222 215 218 222 223 205 197 195 176 170 161 154 151 152 152 148 145 141 147 153 143 142 144 129 146 176 148 133 140 154 147 149 194 235 208 239 152 98 131 340 119 51 208 227 193 257 255
216 209 210 210 210 193 189 182 170 164 155 156 156 154 153 152 153 154 142 139 142 146 147 181 158 145 157 156 175 194 168 151 178 161 150 158 238 97 90 301 280 44 235 266 275 298 287
205 207 205 204 200 191 183 176 171 165 160 160 159 161 161 165 169 170 147 149 160 152 99 134 171 158 163 105 117 105 165 143 101 197 174 101 87 117 212 253 284 255 295 302 301 264 276
200 204 199 198 195 190 183 176 174 167 164 165 167 168 169 175 179 164 161 158 170 210 160 163 182 174 155 131 120 193 157 140 136 130 131 174 209 223 241 254 59 36 351 301 283 287 274
196 200 196 196 193 191 183 180 177 171 168 167 173 175 181 182 182 169 160 154 175 311 141 162 142 141 149 126 124 103 131 142 127 164 147 115 52 48 71 114 70 5 17 9 14 306 224
197 192 196 195 192 191 185 185 180 175 173 172 176 185 190 188 180 170 164 167 65 130 158 145 157 154 134 136 133 148 170 191 172 168 178 164 151 334 23 124 54 57 12 74 357 40 314
195 187 193 192 192 191 188 189 183 179 178 178 183 190 191 193 181 169 166 161 64 56 145 148 150 153 155 169 152 148 148 168 218 175 115 122 101 86 22 74 71 25 53 26 60 6 318
193 186 191 189 188 187 188 189 185 183 183 184 189 193 190 192 182 173 174 170 228 138 135 165 169 186 187 184 172 174 194 185 129 168 170 110 117 144 90 69 62 57 67 75 39 73 312
188 185 188 186 184 183 185 186 184 185 185 187 189 194 188 187 182 181 188 187 250 177 159 179 209 206 264 167 182 174 175 198 168 158 167 160 142 117 104 74 71 81 66 39 299 14 163
183 184 184 179 179 180 181 180 180 183 184 186 182 189 190 188 186 190 187 195 221 225 195 185 168 174 180 162 166 177 194 202 181 164 164 155 149 97 142 63 38 42 172 236 211 267 110
180 181 179 174 174 176 177 175 175 178 180 178 172 167 184 193 192 188 176 210 230 222 176 185 173 174 163 175 150 196 194 212 188 186 154 149 134 140 158 247 35 44 294 303 272 251 255
179 178 173 170 168 172 174 169 169 171 171 162 161 189 188 193 181 186 184 212 181 183 181 179 211 199 168 190 193 201 212 199 186 178 164 162 154 159 169 161 252 275 272 269 295 256 265
177 174 171 167 162 168 171 164 164 167 163 157 157 213 222 191 171 182 183 215 205 198 197 198 194 175 183 170 190 197 219 197 193 187 189 195 182 193 216 251 265 263 284 275 263 267 283
176 173 170 166 160 162 168 163 162 165 162 164 166 162 180 174 169 168 195 199 210 187 219 202 177 162 193 186 182 199 231 211 203 201 203 207 213 230 264 216 244 289 300 95 52 307 279
176 172 170 167 163 160 164 167 164 166 168 170 156 155 170 174 190 178 191 189 196 204 214 183 184 192 200 203 196 200 209 207 238 218 222 225 246 281 260 238 303 231 184 211 257 259 277
176 172 171 170 167 166 159 168 172 176 184 187 180 184 185 177 176 187 202 190 227 212 201 182 206 202 204 210 214 218 226 241 245 246 249 251 258 265 263 293 355 194 256 273 252 252 241
177 173 173 173 172 172 171 166 171 179 186 194 204 206 202 186 186 181 180 197 202 207 208 196 201 209 220 219 222 225 231 233 234 242 238 243 241 230 252 222 282 283 224 268 261 278 264
180 176 175 175 176 176 177 177 177 176 182 189 194 201 205 199 189 183 198 205 207 215 199 203 212 219 218 221 225 223 217 200 216 222 230 227 226 226 228 226 225 171 276 282 279 266 266
183 181 178 180 179 180 181 182 185 186 189 194 199 201 202 202 194 189 194 207 212 221 224 222 220 221 229 235 232 229 221 209 217 226 221 214 227 238 243 251 262 261 251 263 254 275 280
186 185 184 185 184 185 186 186 188 193 196 198 202 206 207 210 202 205 204 208 214 219 224 222 219 229 237 234 237 237 233 225 228 236 237 230 235 228 210 230 265 276 271 252 286 297 293
189 189 190 191 190 190 193 194 197 200 203 204 207 210 212 212 207 205 219 228 219 226 235 236 234 244 225 226 233 234 230 230 242 229 240 239 251 265 248 267 293 295 279 280 291 292 295
Height
3107 3109 3110 3112 3112 3112 3112 3110 3109 3108 3106 3105 3104 3103 3103 3104 3106 3109 3111 3115 3118 3121 3124 3127 3130 3133 3135 3138 3139 3140 3142 3145 3146 3148 3150 3152 3152 3155 3154 3154 3156 3156 3157 3158 3160 3160 3162
3101 3104 3105 3107 3106 3107 3107 3105 3104 3102 3102 3100 3099 3100 3100 3102 3105 3107 3110 3113 3117 3121 3124 3127 3130 3133 3136 3138 3139 3142 3144 3145 3145 3147 3147 3149 3152 3153 3153 3154 3155 3156 3158 3159 3160 3162 3163
3096 3098 3100 3101 3101 3102 3102 3100 3099 3099 3098 3096 3096 3097 3099 3101 3104 3106 3109 3113 3117 3121 3124 3128 3131 3133 3136 3137 3137 3139 3143 3144 3144 3145 3145 3147 3149 3150 3153 3154 3157 3157 3159 3159 3161 3163 3163
3091 3093 3096 3097 3097 3097 3097 3096 3096 3095 3094 3093 3094 3095 3098 3101 3103 3106 3110 3114 3118 3122 3125 3128 3132 3135 3136 3136 3137 3140 3141 3144 3146 3144 3145 3148 3150 3151 3152 3154 3156 3158 3160 3160 3161 3162 3163
3085 3088 3091 3092 3092 3093 3093 3093 3093 3091 3091 3092 3093 3095 3098 3101 3104 3107 3111 3115 3119 3123 3126 3130 3133 3135 3135 3136 3138 3139 3142 3143 3146 3148 3149 3150 3152 3153 3155 3156 3158 3158 3157 3159 3161 3161 3162
3081 3083 3086 3087 3089 3089 3090 3091 3090 3089 3090 3091 3093 3095 3098 3101 3105 3109 3113 3117 3121 3124 3127 3131 3133 3136 3136 3137 3138 3140 3143 3145 3147 3149 3151 3153 3153 3154 3155 3156 3156 3156 3153 3155 3156 3161 3162
3075 3079 3082 3083 3085 3087 3088 3089 3088 3088 3090 3091 3093 3096 3100 3103 3107 3111 3115 3118 3125 3128 3129 3131 3134 3135 3136 3137 3139 3140 3143 3145 3146 3149 3150 3152 3154 3153 3154 3155 3155 3155 3154 3153 3157 3159 3161
3071 3074 3078 3080 3082 3084 3085 3087 3087 3088 3090 3091 3095 3097 3102 3105 3109 3113 3116 3120 3123 3129 3130 3129 3133 3134 3136 3137 3139 3140 3143 3147 3147 3148 3150 3153 3153 3153 3153 3154 3154 3153 3154 3156 3157 3157 3159
3067 3069 3074 3076 3080 3081 3084 3086 3086 3089 3091 3093 3095 3100 3104 3108 3112 3116 3118 3120 3122 3129 3131 3132 3134 3134 3136 3138 3140 3141 3143 3145 3147 3149 3149 3150 3152 3152 3153 3151 3152 3152 3153 3155 3156 3157 3158
3062 3065 3069 3073 3077 3079 3083 3085 3086 3089 3091 3094 3098 3102 3106 3110 3116 3117 3119 3121 3125 3129 3131 3133 3134 3135 3137 3137 3140 3140 3142 3145 3146 3148 3147 3150 3151 3151 3151 3150 3152 3152 3153 3155 3156 3157 3157
3057 3061 3066 3071 3074 3077 3081 3083 3086 3089 3091 3095 3099 3103 3107 3112 3114 3116 3120 3122 3126 3129 3131 3134 3134 3135 3136 3138 3140 3140 3142 3144 3146 3147 3148 3151 3151 3151 3151 3152 3153 3154 3154 3154 3154 3154 3155
3053 3058 3063 3068 3072 3075 3079 3082 3086 3089 3092 3096 3100 3104 3108 3111 3114 3117 3119 3123 3128 3130 3129 3132 3133 3134 3137 3138 3140 3140 3142 3145 3147 3147 3148 3151 3151 3152 3152 3152 3153 3153 3153 3152 3152 3153 3153
3049 3054 3060 3065 3069 3073 3077 3081 3085 3089 3092 3096 3101 3105 3108 3112 3115 3117 3119 3125 3128 3126 3129 3132 3133 3135 3137 3139 3140 3141 3143 3145 3146 3149 3149 3151 3152 3152 3152 3151 3152 3153 3151 3149 3152 3153 3153
3046 3051 3057 3062 3067 3071 3075 3079 3084 3088 3092 3096 3100 3104 3109 3113 3116 3119 3121 3126 3126 3126 3128 3129 3133 3137 3138 3140 3141 3143 3144 3145 3145 3147 3148 3149 3153 3152 3152 3152 3152 3152 3153 3153 3156 3159 3154
3043 3048 3055 3060 3064 3068 3072 3077 3082 3087 3091 3095 3100 3104 3108 3112 3116 3119 3123 3124 3125 3127 3129 3131 3135 3137 3139 3140 3142 3143 3143 3144 3145 3146 3147 3149 3152 3153 3153 3153 3153 3153 3154 3155 3155 3156 3155
3041 3047 3053 3057 3062 3065 3070 3075 3080 3085 3090 3095 3099 3104 3108 3112 3115 3119 3122 3123 3126 3128 3130 3133 3134 3136 3136 3139 3142 3142 3143 3144 3145 3146 3146 3149 3152 3153 3153 3153 3154 3154 3155 3156 3156 3159 3158
3039 3045 3051 3055 3059 3063 3068 3073 3078 3083 3088 3094 3099 3103 3107 3111 3115 3118 3120 3124 3126 3127 3129 3132 3134 3135 3135 3137 3139 3141 3143 3145 3144 3145 3147 3148 3150 3154 3154 3154 3154 3155 3155 3156 3157 3157 3158
3036 3043 3049 3053 3057 3061 3066 3071 3076 3081 3086 3094 3098 3103 3106 3110 3114 3116 3120 3123 3124 3126 3129 3131 3133 3134 3135 3136 3138 3139 3141 3143 3144 3144 3145 3147 3150 3151 3153 3154 3154 3153 3154 3155 3155 3157 3157
3034 3041 3048 3051 3055 3060 3065 3069 3074 3079 3086 3092 3097 3103 3105 3108 3111 3115 3120 3121 3123 3125 3127 3130 3131 3132 3134 3136 3139 3139 3141 3142 3142 3143 3144 3146 3148 3151 3153 3155 3153 3153 3154 3153 3153 3154 3154
3032 3040 3046 3051 3055 3059 3064 3068 3072 3078 3085 3092 3097 3100 3103 3106 3111 3114 3118 3120 3123 3124 3127 3129 3130 3132 3134 3135 3137 3137 3139 3140 3142 3143 3143 3145 3146 3148 3150 3151 3151 3150 3151 3151 3150 3149 3149
3032 3039 3045 3050 3054 3059 3063 3067 3072 3078 3084 3091 3096 3098 3101 3103 3108 3112 3117 3119 3121 3123 3125 3127 3129 3131 3132 3134 3136 3136 3138 3139 3140 3141 3142 3144 3144 3146 3147 3148 3147 3147 3146 3146 3146 3146 3145
3031 3038 3044 3050 3054 3059 3063 3068 3072 3078 3084 3090 3094 3094 3098 3102 3108 3112 3115 3118 3120 3122 3124 3126 3129 3131 3131 3133 3135 3135 3136 3137 3138 3139 3140 3141 3142 3143 3144 3143 3143 3143 3141 3140 3140 3141 3141
3031 3037 3044 3050 3054 3059 3064 3069 3073 3079 3084 3088 3092 3095 3098 3102 3106 3111 3113 3117 3120 3120 3123 3125 3127 3128 3129 3131 3133 3134 3135 3136 3136 3138 3138 3139 3140 3140 3139 3140 3140 3140 3138 3138 3138 3138 3138
3030 3037 3043 3049 3055 3059 3064 3069 3074 3079 3083 3088 3092 3094 3097 3102 3105 3109 3111 3116 3117 3119 3121 3122 3125 3127 3128 3131 3134 3135 3136 3136 3136 3136 3136 3137 3137 3138 3137 3137 3138 3134 3134 3133 3134 3133 3134
3030 3036 3043 3049 3055 3060 3064 3068 3073 3078 3083 3087 3091 3094 3097 3100 3104 3107 3111 3112 3113 3114 3119 3121 3123 3126 3128 3129 3131 3133 3134 3134 3133 3133 3132 3134 3135 3135 3135 3135 3134 3130 3130 3130 3130 3129 3127
3029 3036 3042 3049 3055 3060 3064 3068 3072 3078 3082 3086 3088 3092 3095 3099 3102 3105 3108 3110 3111 3113 3117 3119 3122 3123 3125 3126 3129 3129 3129 3130 3130 3130 3129 3131 3132 3134 3132 3133 3131 3126 3125 3125 3124 3123 3120
3028 3035 3042 3048 3054 3059 3064 3068 3073 3077 3081 3084 3087 3090 3093 3096 3099 3102 3104 3107 3109 3112 3115 3118 3119 3120 3123 3123 3125 3126 3127 3127 3127 3126 3126 3128 3128 3128 3128 3128 3123 3122 3120 3121 3121 3120 3115
3028 3034 3041 3047 3053 3058 3063 3067 3072 3075 3079 3082 3085 3088 3092 3095 3097 3100 3102 3104 3106 3108 3112 3115 3118 3117 3119 3121 3122 3122 3122 3123 3122 3122 3122 3124 3124 3123 3124 3124 3117 3115 3116 3117 3114 3111 3110
3027 3034 3040 3046 3052 3057 3062 3066 3070 3073 3077 3081 3084 3086 3089 3093 3096 3098 3100 3103 3105 3105 3109 3111 3113 3114 3114 3116 3117 3117 3117 3117 3117 3117 3118 3119 3119 3118 3119 3115 3112 3110 3109 3108 3108 3106 3103